Weather History for Glasgow, United Kingdom

Change the Weather History Date:

Monday, October 28, 2013

  Actual Average Record
Temperature  
Mean Temperature 48 °F -  
Max Temperature 51 °F 47 °F 62 °F (2005)
Min Temperature 44 °F 37 °F 24 °F (1997)
Degree Days  
Heating Degree Days 18    
Moisture  
Dew Point 45 °F    
Average Humidity 88    
Maximum Humidity 100    
Minimum Humidity 82    
Precipitation  
Precipitation 0.00 in - - ()
Sea Level Pressure  
Sea Level Pressure 29.05 in    
Wind  
Wind Speed 10 mph ()    
Max Wind Speed 16 mph    
Max Gust Speed -    
Visibility 6.2 miles    
Events Rain    
Averages and records for this station are not official NWS values.
T = Trace of Precipitation, MM = Missing Value Source: Averaged Metar Reports

Daily Weather History Graph

Daily Weather History Graph

Search for Another Location

Airport:

Trip Planner

Search our weather history database for the weather conditions in past years. The results will help you decide how hot, cold, wet, or windy it might be!

Date:

Astronomy

Oct. 28, 2013 Rise Set
Actual Time 7:15 AM GMT 4:46 PM GMT
Civil Twilight 6:37 AM GMT 5:25 PM GMT
Nautical Twilight 5:53 AM GMT 6:08 PM GMT
Astronomical Twilight 5:10 AM GMT 6:51 PM GMT
Moon No Moon Rise 2:18 PM GMT (10/28)
Length of Visible Light 10h 47m
Length of Day
9h 30m
Waning Crescent, 36% of the Moon is Illuminated
Oct 28
Waning Crescent
Nov 3
New
Nov 10
First Quarter
Nov 17
Full
Nov 25
Last Quarter

Hourly Weather History & Observations

Time (GMT) Temp. Windchill Dew Point Humidity Pressure Visibility Wind Dir Wind Speed Gust Speed Precip Events Conditions
12:20 AM 50.0 °F - 46.4 °F 87% 28.94 in 6.2 mi SW 12.7 mph - N/A   Mostly Cloudy
12:50 AM 50.0 °F - 46.4 °F 87% 28.94 in 6.2 mi SW 13.8 mph - N/A   Mostly Cloudy
1:20 AM 50.0 °F - 46.4 °F 87% 28.94 in 6.2 mi SW 15.0 mph - N/A   Mostly Cloudy
1:50 AM 48.2 °F - 46.4 °F 93% 28.94 in 6.2 mi SW 16.1 mph - N/A   Partly Cloudy
2:20 AM 48.2 °F - 44.6 °F 87% 28.91 in 6.2 mi SW 13.8 mph - N/A   Partly Cloudy
2:50 AM 48.2 °F - 46.4 °F 93% 28.91 in 6.2 mi SW 16.1 mph - N/A   Partly Cloudy
3:20 AM 48.2 °F - 46.4 °F 93% 28.88 in 6.2 mi SW 13.8 mph - N/A   Partly Cloudy
3:50 AM 48.2 °F - 46.4 °F 93% 28.88 in 6.2 mi WSW 13.8 mph - N/A   Scattered Clouds
4:20 AM 48.2 °F - 46.4 °F 93% 28.88 in 6.2 mi SW 12.7 mph - N/A   Mostly Cloudy
4:50 AM 48.2 °F - 46.4 °F 93% 28.88 in 6.2 mi WSW 9.2 mph - N/A   Overcast
5:20 AM 48.2 °F - 46.4 °F 93% 28.88 in 6.2 mi WSW 8.1 mph - N/A   Mostly Cloudy
5:50 AM 48.2 °F - 44.6 °F 87% 28.88 in 6.2 mi WSW 8.1 mph - N/A   Mostly Cloudy
6:20 AM 48.2 °F - 44.6 °F 87% 28.88 in 6.2 mi WSW 6.9 mph - N/A   Mostly Cloudy
6:50 AM 46.4 °F 45.2 °F 44.6 °F 93% 28.88 in 6.2 mi SSW 3.5 mph - N/A   Mostly Cloudy
7:20 AM 46.4 °F 45.2 °F 44.6 °F 93% 28.88 in 6.2 mi WSW 3.5 mph - N/A   Mostly Cloudy
7:50 AM 46.4 °F 42.4 °F 46.4 °F 100% 28.91 in 6.2 mi SW 8.1 mph - N/A   Mostly Cloudy
8:20 AM 48.2 °F - 46.4 °F 93% 28.91 in 6.2 mi SW 10.4 mph - N/A   Mostly Cloudy
8:50 AM 48.2 °F - 46.4 °F 93% 28.91 in 6.2 mi WSW 10.4 mph - N/A   Mostly Cloudy
9:20 AM 50.0 °F - 46.4 °F 87% 28.94 in 6.2 mi WSW 9.2 mph - N/A Rain Light Rain
9:50 AM 50.0 °F - 46.4 °F 87% 28.94 in 6.2 mi West 10.4 mph - N/A   Mostly Cloudy
10:20 AM 50.0 °F - 46.4 °F 87% 28.97 in 6.2 mi WSW 10.4 mph - N/A   Scattered Clouds
10:50 AM 51.8 °F - 46.4 °F 82% 28.97 in 6.2 mi WSW 11.5 mph - N/A   Scattered Clouds
11:20 AM 50.0 °F - 44.6 °F 82% 29.00 in 6.2 mi WSW 11.5 mph - N/A   Scattered Clouds
11:50 AM 51.8 °F - 46.4 °F 82% 29.00 in 6.2 mi West 10.4 mph - N/A   Scattered Clouds
12:20 PM 50.0 °F - 44.6 °F 82% 29.03 in 6.2 mi West 11.5 mph - N/A   Mostly Cloudy
12:50 PM 50.0 °F - 44.6 °F 82% 29.03 in 6.2 mi West 12.7 mph - N/A   Mostly Cloudy
1:20 PM 50.0 °F - 44.6 °F 82% 29.03 in 6.2 mi West 8.1 mph - N/A Rain Light Rain
1:50 PM 50.0 °F - 44.6 °F 82% 29.06 in 6.2 mi WSW 13.8 mph - N/A Rain Light Rain Showers
2:20 PM 48.2 °F - 44.6 °F 87% 29.09 in 6.2 mi WSW 12.7 mph - N/A Rain Light Rain
2:50 PM 48.2 °F - 46.4 °F 93% 29.09 in 6.2 mi SW 9.2 mph - N/A   Mostly Cloudy
3:20 PM 48.2 °F - 44.6 °F 87% 29.09 in 6.2 mi West 11.5 mph - N/A Rain Light Rain
3:50 PM 48.2 °F - 44.6 °F 87% 29.12 in 6.2 mi West 5.8 mph - N/A   Mostly Cloudy
4:20 PM 50.0 °F - 44.6 °F 82% 29.12 in 6.2 mi WSW 12.7 mph - N/A   Mostly Cloudy
4:50 PM 48.2 °F - 44.6 °F 87% 29.12 in 6.2 mi WSW 11.5 mph - N/A   Mostly Cloudy
5:20 PM 48.2 °F - 44.6 °F 87% 29.15 in 6.2 mi WSW 12.7 mph - N/A   Mostly Cloudy
5:50 PM 48.2 °F - 44.6 °F 87% 29.15 in 6.2 mi WSW 11.5 mph - N/A Rain Light Rain
6:20 PM 48.2 °F - 44.6 °F 87% 29.18 in 6.2 mi WSW 11.5 mph - N/A Rain Light Rain
6:50 PM 46.4 °F 40.7 °F 44.6 °F 93% 29.18 in 6.2 mi WSW 12.7 mph - N/A Rain Light Rain
7:20 PM 46.4 °F 41.5 °F 42.8 °F 87% 29.18 in 6.2 mi WSW 10.4 mph - N/A Rain Light Rain
7:50 PM 46.4 °F 41.9 °F 44.6 °F 93% 29.21 in 6.2 mi WSW 9.2 mph - N/A Rain Light Rain
8:20 PM 48.2 °F - 44.6 °F 87% 29.24 in 6.2 mi West 11.5 mph - N/A   Mostly Cloudy
8:50 PM 46.4 °F 41.9 °F 44.6 °F 93% 29.24 in 6.2 mi WSW 9.2 mph - N/A Rain Light Rain
9:20 PM 46.4 °F 42.4 °F 42.8 °F 87% 29.27 in - WSW 8.1 mph - N/A   Clear
9:50 PM 46.4 °F 41.9 °F 42.8 °F 87% 29.27 in 6.2 mi WSW 9.2 mph - N/A   Partly Cloudy
10:20 PM 46.4 °F 41.5 °F 42.8 °F 87% 29.30 in 6.2 mi West 10.4 mph - N/A   Partly Cloudy
10:50 PM 44.6 °F 40.2 °F 42.8 °F 93% 29.30 in 6.2 mi West 8.1 mph - N/A   Partly Cloudy
11:20 PM 44.6 °F 40.7 °F 41.0 °F 87% 29.33 in 6.2 mi WSW 6.9 mph - N/A   Scattered Clouds
11:50 PM 44.6 °F 41.4 °F 41.0 °F 87% 29.36 in 6.2 mi West 5.8 mph - N/A   Partly Cloudy